Weather History for KBFM - May, 2012

Change the Weather History Date:

Sunday, May 6, 2012

  Actual Average Record
Temperature  
Mean Temperature 78 °F -  
Max Temperature 87 °F 79 °F 91 °F (2007)
Min Temperature 68 °F 61 °F 48 °F (2013)
Cooling Degree Days 14    
Growing Degree Days 28 (Base 50)    
Moisture  
Dew Point 68 °F    
Average Humidity 79    
Maximum Humidity 94    
Minimum Humidity 46    
Precipitation  
Precipitation 0.53 in - - ()
Sea Level Pressure  
Sea Level Pressure 29.96 in    
Wind  
Wind Speed 6 mph (ENE)    
Max Wind Speed 29 mph    
Max Gust Speed 41 mph    
Visibility 9 miles    
Events Rain , Thunderstorm    
Averages and records for this station are not official NWS values.
T = Trace of Precipitation, MM = Missing Value Source: NWS Daily Summary

Daily Weather History Graph

Daily Weather History Graph

Search for Another Location

Airport or City:

Trip Planner

Search our weather history database for the weather conditions in past years. The results will help you decide how hot, cold, wet, or windy it might be!

Date:

Astronomy

May. 06, 2012 Rise Set
Actual Time 6:03 AM CDT 7:34 PM CDT
Civil Twilight 5:37 AM CDT 8:00 PM CDT
Nautical Twilight 5:07 AM CDT 8:31 PM CDT
Astronomical Twilight 4:34 AM CDT 9:03 PM CDT
Moon 8:33 PM CDT (5/6) 6:17 AM CDT (5/6)
Length of Visible Light 14h 22m
Length of Day
13h 30m
Full, 100% of the Moon is Illuminated
May 6
Full
May 12
Last Quarter
May 20
New
May 28
First Quarter
Jun 4
Full

Hourly Weather History & Observations

Time (CDT) Temp. Heat Index Dew Point Humidity Pressure Visibility Wind Dir Wind Speed Gust Speed Precip Events Conditions
12:53 AM 71.1 °F - 69.1 °F 93% 29.96 in 10.0 mi Calm Calm - N/A   Clear
1:53 AM 72.0 °F - 69.1 °F 91% 29.95 in 10.0 mi NW 4.6 mph - N/A   Partly Cloudy
2:04 AM 73.4 °F - 69.8 °F 88% 29.95 in 10.0 mi NW 3.5 mph - N/A   Mostly Cloudy
2:33 AM 73.4 °F - 69.8 °F 88% 29.95 in 10.0 mi NNW 3.5 mph - N/A   Overcast
2:49 AM 73.4 °F - 71.6 °F 94% 29.95 in 10.0 mi Calm Calm - N/A   Overcast
2:53 AM 73.0 °F - 71.1 °F 93% 29.95 in 10.0 mi Calm Calm - N/A   Overcast
3:53 AM 73.9 °F - 71.1 °F 91% 29.95 in 10.0 mi NW 3.5 mph - N/A   Overcast
4:25 AM 73.4 °F - 69.8 °F 88% 29.95 in 10.0 mi NW 3.5 mph - N/A   Scattered Clouds
4:53 AM 73.0 °F - 70.0 °F 90% 29.95 in 10.0 mi NNW 3.5 mph - N/A   Mostly Cloudy
5:53 AM 72.0 °F - 69.1 °F 91% 29.96 in 10.0 mi Calm Calm - N/A   Clear
6:53 AM 72.0 °F - 70.0 °F 93% 29.98 in 10.0 mi NW 3.5 mph - N/A   Clear
7:37 AM 77.0 °F - 73.4 °F 89% 29.99 in 10.0 mi Calm Calm - N/A   Partly Cloudy
7:53 AM 77.0 °F - 72.0 °F 84% 29.99 in 10.0 mi NNE 3.5 mph - N/A   Partly Cloudy
8:53 AM 79.0 °F - 71.1 °F 77% 29.99 in 10.0 mi NE 4.6 mph - N/A   Partly Cloudy
9:53 AM 80.1 °F 83.6 °F 71.1 °F 74% 29.98 in 10.0 mi NE 5.8 mph - N/A   Scattered Clouds
10:53 AM 82.9 °F 85.8 °F 68.0 °F 60% 29.99 in 10.0 mi East 5.8 mph - N/A   Scattered Clouds
11:53 AM 84.0 °F 87.8 °F 69.1 °F 61% 29.99 in 10.0 mi East 5.8 mph - N/A   Clear
12:53 PM 86.0 °F 86.8 °F 63.0 °F 46% 29.97 in 10.0 mi East 4.6 mph - N/A   Scattered Clouds
1:53 PM 86.0 °F 88.8 °F 66.9 °F 53% 29.95 in 10.0 mi ESE 4.6 mph - N/A   Clear
2:53 PM 86.0 °F 90.1 °F 69.1 °F 57% 29.92 in 10.0 mi SSE 10.4 mph - 0.00 in   Scattered Clouds
3:53 PM 84.0 °F 89.6 °F 72.0 °F 67% 29.91 in 10.0 mi SSE 10.4 mph 18.4 mph N/A   Scattered Clouds
4:53 PM 82.0 °F 86.3 °F 71.1 °F 69% 29.93 in 10.0 mi SSE 10.4 mph 18.4 mph N/A   Scattered Clouds
5:08 PM 75.2 °F - 66.2 °F 73% 29.96 in 10.0 mi NE 20.7 mph 27.6 mph N/A Thunderstorm Thunderstorm
5:16 PM 75.2 °F - 66.2 °F 73% 29.97 in 10.0 mi NE 21.9 mph 31.1 mph 0.00 in Rain , Thunderstorm Light Thunderstorms and Rain
5:23 PM 71.6 °F - 66.2 °F 83% 29.98 in 1.5 mi ENE 28.8 mph 41.4 mph 0.13 in Rain , Thunderstorm Light Thunderstorms and Rain
5:44 PM 71.6 °F - 66.2 °F 83% 29.98 in 2.5 mi ENE 21.9 mph 31.1 mph 0.37 in Rain , Thunderstorm Light Thunderstorms and Rain
5:51 PM 71.6 °F - 66.2 °F 83% 29.99 in 3.0 mi ENE 21.9 mph 31.1 mph 0.40 in Rain , Thunderstorm Light Thunderstorms and Rain
5:53 PM 72.0 °F - 66.0 °F 81% 29.99 in 3.0 mi East 23.0 mph 31.1 mph 0.43 in Rain , Thunderstorm Light Thunderstorms and Rain
6:40 PM 73.4 °F - 64.4 °F 73% 29.96 in 9.0 mi East 21.9 mph 28.8 mph 0.06 in Rain Rain
6:53 PM 73.9 °F - 64.9 °F 73% 29.95 in 9.0 mi East 18.4 mph - 0.08 in Rain Light Rain
7:53 PM 75.0 °F - 64.9 °F 71% 29.92 in 10.0 mi SE 12.7 mph 23.0 mph 0.02 in Rain Light Rain
8:53 PM 72.0 °F - 66.0 °F 81% 29.93 in 10.0 mi Calm Calm - 0.00 in   Clear
9:53 PM 73.9 °F - 64.9 °F 73% 29.95 in 10.0 mi East 10.4 mph - N/A   Clear
10:53 PM 72.0 °F - 64.9 °F 78% 29.94 in 10.0 mi East 4.6 mph - N/A   Clear
11:53 PM 68.0 °F - 64.9 °F 90% 29.94 in 10.0 mi NW 3.5 mph - N/A   Clear